Regional Weather Roundup
Issued by NWS Newport/Morehead, NC

Current Version | Previous Version | Graphics & Text | Print | Product List | Glossary Off
Versions: 1 2 3 4 5 6 7 8 9 10 11 12 13 14 15 16 17 18 19 20 21 22 23 24 25 26 27 28 29 30 31 32 33 34 35 36 37 38 39 40 41 42 43 44 45 46 47 48 49 50
584 ASUS42 KMHX 230825 RWRMHX WEATHER ROUNDUP FOR EASTERN NORTH CAROLINA NATIONAL WEATHER SERVICE NEWPORT/MOREHEAD CITY NC 400 AM EDT FRI JUN 23 2017 NOTE: "FAIR" INDICATES FEW OR NO CLOUDS BELOW 12,000 FEET WITH NO SIGNIFICANT WEATHER AND/OR OBSTRUCTIONS TO VISIBILITY NCZ015>017-031-032-045>047-102-103-230900- NORTH COAST CITY SKY/WX TMP DP RH WIND PRES REMARKS EDENTON CLOUDY 79 73 82 CALM 30.01F ELIZABETH CITY CLOUDY 77 73 87 SW10 30.00S KITTY HAWK CLOUDY 78 72 81 W5 29.99F MANTEO MOCLDY 77 73 85 W8 30.01F $$ NCZ045>047-081-094-103-104-230900- CENTRAL COAST CITY SKY/WX TMP DP RH WIND PRES REMARKS FRISCO CLOUDY 80 75 84 W7 30.02F $$ NCZ095-097-098-100-101-230900- SOUTHERN COAST CITY SKY/WX TMP DP RH WIND PRES REMARKS BEAUFORT CLOUDY 80 79 96 SW12 30.02F CEDAR ISLAND NOT AVBL JACKSONVILLE CLOUDY 76 76 100 SW3 30.02F PINEY ISLAND CLOUDY N/A N/A N/A SW6 30.02F WILMINGTON PTCLDY 78 76 93 SW7 30.03F $$ NCZ011>013-027>030-043-044-078>080-089-090>093-098-230900- COASTAL PLAIN CITY SKY/WX TMP DP RH WIND PRES REMARKS AHOSKIE LGT RAIN 72 71 97 CALM 30.00F CLINTON CLOUDY 76 76 100 CALM 30.03S FOG ELIZABETHTOWN NOT AVBL GOLDSBORO CLOUDY 77 77 100 SW7 30.00F GREENVILLE CLOUDY 75 75 100 SW3 30.03S HAVELOCK CLOUDY 78 75 90 SW7 30.03F KENANSVILLE CLOUDY 75 75 100 SW5 30.03S FOG KINSTON CLOUDY 76 75 96 SW6 30.02F NEW BERN CLOUDY 76 76 100 SW3 30.03F FOG RICHLANDS CLOUDY 76 76 100 SW6 30.03F ROCKY MOUNT LGT RAIN 74 74 100 S6 30.00F WASHINGTON CLOUDY 74 73 96 SW5 30.02S WHITEVILLE CLOUDY 78 76 94 SW3 30.03S $$ AMZ130-135-150-152-154-156-158-170-250-252-270-ANZ085-086-088-633-658-670-230900- MARINE OBSERVATIONS STATION/POSITION TIME TEMP WIND PRES WAVE SWELL AIR SEA DIR/SP/G HT/PER HT/PER (UTC) (F) (DEG/KT/KT) (MB) (FT/S) (FT/S) CHESAPEAKE LIGHT NOT AVBL 64 E VA BEACH 0750 74 71 230/ 10/ 14 1015.5 2/ 9 2/ 9 DUCK 0800 79 64 240/ 12/ 18 1015.2 2 E DUCK NOT AVBL OREGON INLET 0800 78 79 240/ 12/ 14 1015.9 13E OREGON INLT 0748 71 N/A 3/ 8 2/ 8 HATTERAS CG 0800 78 78 250/ 8/ 12 1016.4 DIAMOND BUOY 0750 80 80 260/ 12/ 14 1016.8 3/ 8 2/ 8 CAPE LOOKOUT 0800 79 230/ 8/ 11 1016.5 BEAUFORT LAB 0800 79 78 230/ 4/ 8 1016.1 30 SE NEW RVR IN 0708 79 80 230/ 14/ 17 1017.2 30 SE NEW RVR IN 0813 80 N/A 4/ 8 27 SE WRIGHTSVLE 0708 79 80 230/ 12/ 16 1016.5 5 SE WRIGHTSVLE NOT AVBL 225 S CAPE HAT 0750 80 82 210/ 12/ 14 1018.7 4/ 8 3/ 8 41 SE CHARLESTON 0810 81 81 200/ 16/ 17 1016.8 $$

USA.gov is the U.S. government's official web portal to all federal, state and local government web resources and services.